This demonstration page uses our WeatherBlox Daily Observations layout. Learn more.

Left ArrowRight Arrow

Hourly Observations for February 5, 2016

Temp ( °F °C ) Dew Point ( °F °C ) Humidity (%) Winds ( mph kmh ) Pressure ( in mb ) Visibility ( mi km ) Precip ( " mm )
12:15 am 00:15 Partly Cloudy 18 -8 -27 -33 11 11 SSW 5 7 30.45 1031 10 16 0.00 0.00
12:35 am 00:35 Partly Cloudy 16 -9 -27 -33 12 12 SW 6 9 30.45 1031 10 16 0.00 0.00
12:55 am 00:55 Clear 18 -8 -26 -32 12 12 WSW 7 11 30.45 1031 10 16 0.00 0.00
1:15 am 01:15 Mostly Cloudy 19 -7 -26 -32 12 12 SSW 5 7 30.45 1031 10 16 0.00 0.00
1:35 am 01:35 Cloudy 18 -8 -26 -32 12 12 SSW 5 7 30.42 1030 10 16 0.00 0.00
1:55 am 01:55 Cloudy 19 -7 -26 -32 12 12 SSW 8 13 30.42 1030 10 16 0.00 0.00
2:15 am 02:15 Cloudy 19 -7 -26 -32 12 12 SSW 10 17 30.42 1030 10 16 0.00 0.00
2:35 am 02:35 Cloudy 21 -6 -24 -31 12 12 SSW 9 15 30.39 1029 10 16 0.00 0.00
2:55 am 02:55 Cloudy 21 -6 -24 -31 12 12 SSW 9 15 30.39 1029 10 16 0.00 0.00
3:15 am 03:15 Cloudy 23 -5 -24 -31 11 11 SSW 9 15 30.42 1030 10 16 0.00 0.00
3:35 am 03:35 Cloudy 25 -4 -22 -30 11 11 SW 10 17 30.39 1029 7 11 0.00 0.00
3:55 am 03:55 Cloudy 23 -5 -22 -30 12 12 SW 10 17 30.39 1029 3 5 0.00 0.00
4:15 am 04:15 Cloudy 23 -5 -22 -30 12 12 SW 12 19 30.39 1029 3 5 0.00 0.00
4:35 am 04:35 Cloudy 23 -5 -22 -30 12 12 SW 9 15 30.39 1029 4 6 0.00 0.00
4:55 am 04:55 Cloudy 23 -5 -22 -30 12 12 SSW 7 11 30.39 1029 5 8 0.00 0.00
5:15 am 05:15 Cloudy 23 -5 -22 -30 12 12 SSW 8 13 30.39 1029 3 5 0.00 0.00
5:35 am 05:35 Cloudy 23 -5 -22 -30 12 12 SSW 8 13 30.39 1029 7 11 0.00 0.00
5:55 am 05:55 Cloudy 25 -4 -22 -30 11 11 SW 10 17 30.39 1029 7 11 0.00 0.00
6:15 am 06:15 Cloudy 25 -4 -22 -30 11 11 SW 9 15 30.39 1029 5 8 0.00 0.00
6:35 am 06:35 Cloudy 25 -4 -20 -29 12 12 SW 12 19 30.39 1029 4 6 0.00 0.00
6:55 am 06:55 Cloudy 27 -3 -20 -29 11 11 SW 13 20 30.36 1028 4 6 0.00 0.00
7:15 am 07:15 Cloudy 27 -3 -18 -28 13 13 SW 13 20 30.36 1028 4 6 0.00 0.00
7:35 am 07:35 Cloudy 28 -2 -18 -28 12 12 SW 13 20 30.36 1028 7 11 0.00 0.00
7:55 am 07:55 Cloudy 28 -2 -18 -28 12 12 SW 12 19 30.36 1028 5 8 0.00 0.00
8:15 am 08:15 Cloudy 28 -2 -18 -28 12 12 SSW 13 20 30.36 1028 3 5 0.00 0.00
8:35 am 08:35 Mostly Cloudy 28 -2 -18 -28 12 12 SW 13 20 30.36 1028 9 14 0.00 0.00
8:55 am 08:55 Cloudy 28 -2 -18 -28 12 12 SW 14 22 30.36 1028 3 5 0.00 0.00
9:15 am 09:15 Cloudy 28 -2 -18 -28 12 12 SW 13 20 30.36 1028 2 2 0.00 0.00
9:35 am 09:35 Cloudy 28 -2 -18 -28 12 12 SSW 13 20 30.36 1028 2 3 0.00 0.00
9:55 am 09:55 Cloudy 30 -1 -18 -28 11 11 SSW 13 20 30.36 1028 10 16 0.00 0.00
10:15 am 10:15 Mostly Cloudy 30 -1 -17 -27 12 12 SSW 14 22 30.36 1028 10 16 0.00 0.00
10:35 am 10:35 Partly Cloudy 32 0 -17 -27 11 11 SW 14 22 30.36 1028 10 16 0.00 0.00
10:55 am 10:55 Partly Cloudy 32 0 -17 -27 11 11 SW 13 20 30.36 1028 10 16 0.00 0.00
11:15 am 11:15 Sunny 34 1 -17 -27 10 10 SW 13 20 30.33 1027 10 16 0.00 0.00
11:35 am 11:35 Mostly Cloudy 36 2 -15 -26 10 10 SW 14 22 30.33 1027 10 16 0.00 0.00
11:55 am 11:55 Partly Cloudy 36 2 -13 -25 11 11 WSW 12 19 30.33 1027 10 16 0.00 0.00
12:15 pm 12:15 Mostly Sunny 37 3 -11 -24 12 12 W 10 17 30.33 1027 10 16 0.00 0.00
12:35 pm 12:35 Mostly Cloudy 39 4 -9 -23 12 12 W 13 20 30.27 1025 10 16 0.00 0.00
12:55 pm 12:55 Cloudy 39 4 -11 -24 11 11 W 13 20 30.27 1025 10 16 0.00 0.00
1:15 pm 13:15 Cloudy 39 4 -11 -24 11 11 W 13 20 30.27 1025 10 16 0.00 0.00
1:35 pm 13:35 Cloudy 43 6 -9 -23 10 10 W 14 22 30.27 1025 10 16 0.00 0.00
1:55 pm 13:55 Partly Cloudy 43 6 -9 -23 10 10 W 10 17 30.27 1025 10 16 0.00 0.00
2:15 pm 14:15 Sunny 43 6 -9 -23 10 10 W 9 15 30.27 1025 10 16 0.00 0.00
2:35 pm 14:35 Mostly Sunny 43 6 -9 -23 10 10 WNW 10 17 30.27 1025 10 16 0.00 0.00
2:55 pm 14:55 Partly Cloudy 41 5 -9 -23 11 11 NW 13 20 30.27 1025 10 16 0.00 0.00
3:15 pm 15:15 Partly Cloudy 41 5 -9 -23 11 11 NW 10 17 30.27 1025 10 16 0.00 0.00
3:35 pm 15:35 Cloudy 41 5 -9 -23 11 11 NW 8 13 30.27 1025 10 16 0.00 0.00
3:55 pm 15:55 Mostly Cloudy 39 4 -9 -23 12 12 NW 7 11 30.27 1025 10 16 0.00 0.00
4:15 pm 16:15 Mostly Cloudy 39 4 -11 -24 11 11 NW 9 15 30.27 1025 10 16 0.00 0.00
4:35 pm 16:35 Mostly Cloudy 37 3 -11 -24 12 12 W 8 13 30.30 1026 10 16 0.00 0.00
4:55 pm 16:55 Mostly Cloudy 37 3 -11 -24 12 12 WNW 7 11 30.30 1026 10 16 0.00 0.00
5:15 pm 17:15 Cloudy 37 3 -13 -25 11 11 NW 15 24 30.30 1026 10 16 0.00 0.00
5:35 pm 17:35 Cloudy 37 3 -13 -25 11 11 NW 13 20 30.33 1027 10 16 0.00 0.00
5:55 pm 17:55 Mostly Cloudy 36 2 -13 -25 11 11 NW 10 17 30.33 1027 10 16 0.00 0.00
6:15 pm 18:15 Cloudy 36 2 -13 -25 11 11 NW 8 13 30.33 1027 10 16 0.00 0.00
6:35 pm 18:35 Cloudy 36 2 -15 -26 10 10 NNW 9 15 30.33 1027 10 16 0.00 0.00
6:55 pm 18:55 Cloudy 36 2 N/A N/A NNW 7 11 30.33 1027 10 16 0.00 0.00
7:15 pm 19:15 Cloudy 34 1 -15 -26 11 11 NW 5 7 30.33 1027 10 16 0.00 0.00
7:35 pm 19:35 Cloudy 34 1 -15 -26 11 11 NW 6 9 30.33 1027 10 16 0.00 0.00
7:55 pm 19:55 Cloudy 34 1 -15 -26 11 11 NNW 6 9 30.33 1027 10 16 0.00 0.00
8:15 pm 20:15 Cloudy 34 1 -15 -26 11 11 NW 7 11 30.33 1027 10 16 0.00 0.00
8:35 pm 20:35 Cloudy 34 1 -15 -26 11 11 NNW 8 13 30.33 1027 10 16 0.00 0.00
8:55 pm 20:55 Cloudy 34 1 -15 -26 11 11 N 12 19 30.36 1028 10 16 0.00 0.00
9:15 pm 21:15 Cloudy 34 1 -15 -26 11 11 NNW 15 24 30.36 1028 10 16 0.00 0.00
9:35 pm 21:35 Cloudy 34 1 -15 -26 11 11 NNW 10 17 30.36 1028 10 16 0.00 0.00
9:55 pm 21:55 Cloudy 34 1 -15 -26 11 11 NNW 8 13 30.36 1028 10 16 0.00 0.00
10:15 pm 22:15 Cloudy 34 1 -15 -26 11 11 NNW 8 13 30.36 1028 10 16 0.00 0.00
10:35 pm 22:35 Cloudy 34 1 -15 -26 11 11 N 9 15 30.36 1028 10 16 0.00 0.00
10:55 pm 22:55 Cloudy 34 1 -15 -26 11 11 N 8 13 30.36 1028 10 16 0.00 0.00
11:15 pm 23:15 Partly Cloudy 30 -1 -17 -27 12 12 NNW 6 9 30.39 1029 10 16 0.00 0.00
11:35 pm 23:35 Clear 30 -1 -17 -27 12 12 NW 3 6 30.39 1029 10 16 0.00 0.00
11:55 pm 23:55 Clear 27 -3 -20 -29 11 11 WNW 6 9 30.42 1030 10 16 0.00 0.00

Powered by AerisWeather